User: anonymous   Login
Location: Unspecified
(0.0000°N, 0.0000°E)
Time: 09:32:06
(UTC+00:00)
Language:

TDRS 9 - Orbit

View from above orbital plane
View from above orbital plane
View from above satellite
View from above satellite

Ground track
Ground track

The orbit data is extracted from the following two-line orbital elements,

1 27389U 02011A   18018.10620329 -.00000101 +00000-0 +00000-0 0  9997
2 27389 005.6884 076.5194 0023994 243.7769 183.2568 01.00270737059643
Epoch (UTC): 18 January 2018 02:32:55
Eccentricity: 0.0023994
inclination: 5.6884°
perigee height: 35685 km
apogee height: 35887 km
right ascension of ascending node: 76.5194°
argument of perigee: 243.7769°
revolutions per day: 1.00270737
mean anomaly at epoch: 183.2568°
orbit number at epoch: 5964

The dashed part of the orbit path shows where the satellite is in the earth's shadow,  

DLR